Regional Weather Roundup
Issued by NWS

Home | Current Version | Previous Version | Text Only | Print | Product List | Glossary Off
Versions: 1 2 3 4 5 6 7 8 9 10 11 12 13 14 15 16 17 18 19 20 21 22 23 24 25 26 27 28 29 30 31 32 33 34 35 36 37 38 39 40 41 42 43 44 45 46 47 48 49 50

000
ASUS43 KMPX 232210
RWRMN
WEATHER ROUNDUP FOR MINNESOTA
NATIONAL WEATHER SERVICE TWIN CITIES/CHANHASSEN MN
500 PM CDT WED APR 23 2014


NOTE: "FAIR" INDICATES FEW OR NO CLOUDS BELOW 12,000 FEET WITH NO
SIGNIFICANT WEATHER AND/OR OBSTRUCTIONS TO VISIBILITY. N/A MEANS
CURRENT SKY AND/OR WEATHER CONDITIONS ARE NOT AVAILABLE.

MNZ060>063-068>070-232300-
   Twin Cities Metro

CITY           SKY/WX    TMP DP  RH WIND       PRES   REMARKS
TWIN CITIES    LGT RAIN  41  37  86 E18       29.97F
ST PAUL        LGT RAIN  41  36  82 SE10      30.00F
CRYSTAL        LGT RAIN  42  36  79 E14       29.95F
EDEN PRAIRIE   CLOUDY    42  36  79 E14G20    29.95F
LAKEVILLE      CLOUDY    39  36  87 E16G22    29.96F
SOUTH ST PAUL  CLOUDY    44  37  78 SE8G20    29.99F
LAKE ELMO      LGT RAIN  41  37  87 E10G17    30.00F
$$
MNZ001>005-007-008-013>017-022>024-027-028-232300-
   Northwest Minnesota

CITY           SKY/WX    TMP DP  RH WIND       PRES   REMARKS
BEMIDJI        CLOUDY    48  25  39 SE18G28   29.91S
HALLOCK        LGT RAIN  45  41  87 SE14      29.87F
ROSEAU         CLOUDY    55  23  28 SE17      29.89S
WARROAD        CLOUDY    55  28  35 E9        29.90F
THIEF RVR FALL CLOUDY    45  37  76 SE16      29.89S
CROOKSTON      RAIN      41  41 100 S25       29.89S
FOSSTON        RAIN      39  37  93 SE14G25   29.90S
DETROIT LAKES  DRIZZLE   37  37 100 SE22G32   29.87R
MOORHEAD       CLOUDY    43  43 100 SE20      29.83F
PARK RAPIDS    LGT RAIN  38  36  92 SE12      29.92S FOG
$$
MNZ006-009>011-018-025>026-232300-
   North Central Minnesota

CITY           SKY/WX    TMP DP  RH WIND       PRES   REMARKS
BAUDETTE       CLOUDY    56  23  27 SE13G21   29.91F
FLAG ISLAND    CLOUDY    54  21  28 E10G16    29.91F
INTL FALLS     CLOUDY    55  23  28 SE14      29.95F
WASKISH        CLOUDY    55  27  33 SE12G20   29.92F
BIG FORK       CLOUDY    54  21  28 SE14      29.97S
LONGVILLE      CLOUDY    46  27  46 S15G21    29.95F
GRAND RAPIDS   CLOUDY    50  21  32 SE15      29.97S
CRANE LAKE     CLOUDY    57  19  23 S3        30.00F
ORR            CLOUDY    54  18  24 SE12G17   29.95F
COOK           CLOUDY    54  21  28 SE8       29.98F
$$
MNZ012-019>021-037-232300-
   Northeast Minnesota

CITY           SKY/WX    TMP DP  RH WIND       PRES   REMARKS
DULUTH         CLOUDY    46  24  42 E12       30.00F
ELY            CLOUDY    50  18  27 SE14      30.01F
HIBBING        CLOUDY    51  23  33 SE15      29.99F
EVELETH        CLOUDY    52  25  35 SE10      30.00F
DULUTH HARBOR  CLOUDY    36  30  80 CALM      30.05F
TWO HARBORS    CLOUDY    45  25  45 NE10      30.02F
SILVER BAY     CLOUDY    43  28  56 NE8       30.04F
GRAND MARAIS     N/A     39  28  64 E3        30.10F
G MARAIS ARPRT CLOUDY    43  18  36 SE3       30.08F
$$
MNZ029>031-032-039>041-046>048-054>057-064-232300-
   West Central Minnesota

CITY           SKY/WX    TMP DP  RH WIND       PRES   REMARKS
FERGUS FALLS   CLOUDY    43  36  75 SE22G33   29.81S
WHEATON        CLOUDY    45  39  81 SE26G35   29.81S
MORRIS         CLOUDY    43  37  81 SE25G32   29.82F
ALEXANDRIA     CLOUDY    40  37  89 E21G32    29.87F
ELBOW LAKE     CLOUDY    41  37  84 SE21G31   29.84R
WADENA         RAIN      36  34  93 E16G25    29.90F
GLENWOOD       CLOUDY    39  37  93 E23G29    29.88S
APPLETON       CLOUDY    45  36  70 SE23G33   29.81F
BENSON         RAIN      43  37  81 SE17G29   29.85R
ORTONVILLE     CLOUDY    43  36  75 SE23G32   29.79S
MADISON        CLOUDY    48  39  71 SE31G38   29.79F
WILLMAR        DRIZZLE   43  36  75 SE21G32   29.88S
$$
MNZ033>034-036-042>043-049>051-058-059-232300-
   Central Minnesota

CITY           SKY/WX    TMP DP  RH WIND       PRES   REMARKS
ST CLOUD       CLOUDY    41  37  86 E9G20     29.95F
SAUK CENTRE    CLOUDY    39  37  94 E13       29.91F
PAYNESVILLE    CLOUDY    40  37  87 E18       29.90F
AITKIN         CLOUDY    50  23  34 SE10      29.97R
PINE RIVER     RAIN      37  36  93 SE13G20   30.00F
BRAINERD       LGT RAIN  44  35  70 SE7       29.99R
STAPLES        RAIN      36  34  93 E9G17     29.93F
LONG PRAIRIE   CLOUDY    37  36  93 E13G21    29.93S
LITTLE FALLS   MIX PCPN  36  34  93 E14G21    29.95F
LITCHFIELD     CLOUDY    43  39  87 E21G26    29.91F
BUFFALO        CLOUDY    40  36  85 E12G21    29.96S
MAPLE LAKE     CLOUDY    41  39  92 E9        29.95F
$$
MNZ037-044-045-052-053-232300-
   East Central Minnesota

CITY           SKY/WX    TMP DP  RH WIND       PRES   REMARKS
PRINCETON      RAIN      41  37  87 E14       29.98F
MORA           LGT RAIN  45  30  57 SE8       30.01F
CAMBRIDGE      RAIN      43  34  70 SE9       29.99F
RUSH CITY      CLOUDY    47  32  56 S13G22    30.01F
MOOSE LAKE     CLOUDY    50  27  40 SE7       29.98F
HINCKLEY       CLOUDY    50  28  43 SE8       29.99F
CLOQUET        CLOUDY    45  21  39 E14       30.00F
MCGREGOR       CLOUDY    48  27  43 SE13G20   29.98S
$$
MNZ071>073-080-081-089-090-097-098-232300-
   Southwest Minnesota

CITY           SKY/WX    TMP DP  RH WIND       PRES   REMARKS
MONTEVIDEO     CLOUDY    43  37  81 S26G33    29.83F
GRANITE FALLS  CLOUDY    44  34  69 E18G35    29.83S
CANBY          CLOUDY    46  38  75 E23G35    29.78F
MARSHALL       CLOUDY    48  36  61 SE23G33   29.79S
REDWOOD FALLS  CLOUDY    44  35  70 SE23G31   29.84F
OLIVIA         CLOUDY    43  36  75 E21G26    29.86S
PIPESTONE      PTSUNNY   54  39  58 SE28G36   29.70F
WINDOM         CLOUDY    46  37  71 SE26G38   29.79F
WORTHINGTON    CLOUDY    50  34  53 SE31G37   29.78S
JACKSON        CLOUDY    46  36  66 SE30G36   29.80F
TRACY          CLOUDY    47  38  70 SE18G30   29.80R
SLAYTON        CLOUDY    47  37  70 SE26G37   29.78S
$$
MNZ065>067-074>077-082>085-091>093-232300-
   South Central Minnesota

CITY           SKY/WX    TMP DP  RH WIND       PRES   REMARKS
MANKATO        CLOUDY    45  34  65 SE21G26   29.92S
NEW ULM        DRIZZLE   45  36  70 SE18G29   29.88S
ST JAMES       CLOUDY    46  37  71 E21G31    29.85F
FAIRMONT       CLOUDY    45  36  70 SE29G38   29.86F
GLENCOE        CLOUDY    43  35  74 E20       29.91F
FARIBAULT      RAIN      45  34  65 E12G18    29.93F
OWATONNA       DRIZZLE   45  34  65 E14       29.93F
WASECA         DRIZZLE   43  32  65 SE14G22   29.95S
ALBERT LEA     RAIN      45  36  70 SE17G25   29.93S
$$
MNZ078>079-086>088-094>096-232300-
   Southeast Minnesota

CITY           SKY/WX    TMP DP  RH WIND       PRES   REMARKS
ROCHESTER      CLOUDY    47  28  47 SE21      29.96F
RED WING       LGT RAIN  43  37  81 E10G16    29.99F
STANTON        LGT RAIN  42  36  78 E15       29.96F
DODGE CENTER   CLOUDY    48  30  49 SE15      29.94F
WINONA         LGT RAIN  43  36  75 E13G18    30.03F
AUSTIN         LGT RAIN  45  36  70 SE16      29.94F
PRESTON        CLOUDY    48  28  46 SE17      29.98F
$$
ABBREVIATIONS USED IN REMARKS
   TC - TEMPERATURES IN CELSIUS
  WCI - WIND CHILL INDEX
   HX - HEAT INDEX
  VSB - VISIBILITY
$$



USA.gov is the U.S. government's official web portal to all federal, state and local government web resources and services.